Aeroporto :
LOGIN :

Iscrizione | Disclaimer

   EN    FR    IT 

 










Sommario :    VFR   VFR Marginale   IFR   IFR Intensivo   IFR Molto Intensivo
Visibilità : 
Base nubi : 
>= 8 km
>= 3000ft
5 / 8 km
1000 / 3000 ft
1500m / 5 km
500 / 1000 ft
800 / 1500m
200 / 500 ft
< 800m
< 200 ft
Simboli :   Temporali  Nebbia  Neve Forte  Precipitazioni Forti  Vento > 20 kt
SIGMETs :   Varie  Temporali  Ghiacco  Turbolenza  Onda orograficha  Ceneri Vulcaniche






- Altitudine del aeroporto : 302 ft
- Codice IATA : SJY


EFSI - Seinäjoki

ULTIMO METAR :
  • 111820Z AUTO 02003KT 9999 FEW049 15/09 Q1025

METARs OBSOLETI :
  • 111750Z AUTO 36004KT 9999 SCT048 16/09 Q1025
  • 111720Z AUTO 34003KT CAVOK 16/08 Q1025
  • 111650Z AUTO 33007KT 300V020 9999 SCT048 17/08 Q1025
  • 111620Z AUTO 33009KT 300V020 9999 SCT044 BKN050 18/08 Q1025
  • 111550Z AUTO 33009KT 290V360 9999 FEW044 BKN050 18/07 Q1025

Previsioni scadute.



MetMap, La meteo Aeronautica in un colpo d'occhio ! - Copyright ORBIFLY Dicembre 2007 - Disclaimer

ORBIFLY MET'MAP TEAM :

Programmazione e sviluppo : Alexandra Zaïnal
Concezione : Baudouin d'Aumeries
Aiuto per la programmazione : Marc-Olivier Méhu
Supporto tecnico e logistico : Manuel Goepfert
Aiuto per la traduzione : Arnaldo La Scala

Contatto : metmap@orbifly.com




FONTI E CREDITI :

   NOAA